Time,TemperatureF,DewpointF,PressureIn,WindDirection,WindDirectionDegrees,WindSpeedMPH,WindSpeedGustMPH,Humidity,HourlyPrecipIn,Conditions,Clouds,dailyrainin,SoftwareType,DateUTC
2013-03-08 00:01:00,46.8,44.0,30.22,North,360,0.0,1.0,91,0.00,,,0.00,weatherlink.com 1.10,2013-03-08 05:01:00,
2013-03-08 00:18:00,46.3,44.0,30.21,North,360,0.0,0.0,92,0.00,,,0.00,weatherlink.com 1.10,2013-03-08 05:18:00,
2013-03-08 00:33:00,46.0,44.0,30.21,North,360,1.0,1.0,92,0.00,,,0.00,weatherlink.com 1.10,2013-03-08 05:33:00,
2013-03-08 00:49:00,45.8,44.0,30.21,North,360,0.0,1.0,92,0.00,,,0.00,weatherlink.com 1.10,2013-03-08 05:49:00,
2013-03-08 01:05:00,45.8,44.0,30.21,North,360,0.0,0.0,93,0.00,,,0.00,weatherlink.com 1.10,2013-03-08 06:05:00,
2013-03-08 01:24:00,45.9,44.0,30.21,North,360,0.0,0.0,93,0.00,,,0.00,weatherlink.com 1.10,2013-03-08 06:24:00,
2013-03-08 01:37:00,46.1,44.0,30.21,North,360,0.0,0.0,93,0.00,,,0.00,weatherlink.com 1.10,2013-03-08 06:37:00,
2013-03-08 01:54:00,45.8,44.0,30.21,North,360,0.0,0.0,93,0.00,,,0.00,weatherlink.com 1.10,2013-03-08 06:54:00,
2013-03-08 02:09:00,45.5,44.0,30.20,North,360,0.0,0.0,93,0.00,,,0.00,weatherlink.com 1.10,2013-03-08 07:09:00,
2013-03-08 02:24:00,45.6,44.0,30.20,North,360,0.0,0.0,94,0.00,,,0.00,weatherlink.com 1.10,2013-03-08 07:24:00,
2013-03-08 02:43:00,45.6,44.0,30.19,North,360,0.0,1.0,94,0.00,,,0.00,weatherlink.com 1.10,2013-03-08 07:43:00,
2013-03-08 02:57:00,45.8,44.0,30.19,North,360,0.0,0.0,94,0.00,,,0.00,weatherlink.com 1.10,2013-03-08 07:57:00,
2013-03-08 03:12:00,46.0,44.0,30.19,North,360,0.0,1.0,94,0.00,,,0.00,weatherlink.com 1.10,2013-03-08 08:12:00,
2013-03-08 03:29:00,45.7,44.0,30.19,ENE,74,1.0,3.0,94,0.00,,,0.00,weatherlink.com 1.10,2013-03-08 08:29:00,
2013-03-08 03:45:00,46.0,45.0,30.19,ENE,74,1.0,2.0,95,0.00,,,0.00,weatherlink.com 1.10,2013-03-08 08:45:00,
2013-03-08 04:00:00,46.3,45.0,30.18,NE,54,1.0,3.0,95,0.00,,,0.00,weatherlink.com 1.10,2013-03-08 09:00:00,
2013-03-08 04:16:00,46.5,45.0,30.18,ENE,59,1.0,3.0,95,0.00,,,0.00,weatherlink.com 1.10,2013-03-08 09:16:00,
2013-03-08 04:32:00,46.8,46.0,30.19,ENE,59,0.0,2.0,95,0.00,,,0.00,weatherlink.com 1.10,2013-03-08 09:32:00,
2013-03-08 04:49:00,46.5,45.0,30.19,ENE,63,1.0,3.0,95,0.00,,,0.00,weatherlink.com 1.10,2013-03-08 09:49:00,
2013-03-08 05:04:00,46.5,45.0,30.20,NE,49,0.0,2.0,95,0.00,,,0.00,weatherlink.com 1.10,2013-03-08 10:04:00,
2013-03-08 05:19:00,46.3,45.0,30.20,NE,49,1.0,2.0,95,0.00,,,0.00,weatherlink.com 1.10,2013-03-08 10:19:00,
2013-03-08 05:35:00,46.0,45.0,30.20,NE,55,0.0,2.0,95,0.00,,,0.00,weatherlink.com 1.10,2013-03-08 10:35:00,
2013-03-08 05:51:00,45.9,45.0,30.20,ENE,70,1.0,3.0,95,0.00,,,0.00,weatherlink.com 1.10,2013-03-08 10:51:00,
2013-03-08 06:08:00,45.6,44.0,30.20,ENE,63,0.0,3.0,95,0.00,,,0.00,weatherlink.com 1.10,2013-03-08 11:08:00,
2013-03-08 06:23:00,45.4,44.0,30.20,ENE,67,1.0,3.0,95,0.00,,,0.00,weatherlink.com 1.10,2013-03-08 11:23:00,
2013-03-08 06:40:00,45.1,44.0,30.21,ENE,67,0.0,2.0,95,0.00,,,0.00,weatherlink.com 1.10,2013-03-08 11:40:00,
2013-03-08 06:56:00,45.0,44.0,30.21,ENE,67,0.0,2.0,95,0.00,,,0.00,weatherlink.com 1.10,2013-03-08 11:56:00,
2013-03-08 07:11:00,45.4,44.0,30.21,ENE,67,1.0,2.0,95,0.00,,,0.00,weatherlink.com 1.10,2013-03-08 12:11:00,
2013-03-08 07:27:00,46.3,45.0,30.22,NE,36,2.0,3.0,95,0.00,,,0.00,weatherlink.com 1.10,2013-03-08 12:27:00,
2013-03-08 07:44:00,47.6,46.0,30.22,ENE,61,1.0,4.0,93,0.00,,,0.00,weatherlink.com 1.10,2013-03-08 12:44:00,
2013-03-08 07:59:00,49.5,47.0,30.23,ENE,71,1.0,2.0,90,0.00,,,0.00,weatherlink.com 1.10,2013-03-08 12:59:00,
2013-03-08 08:16:00,52.8,47.0,30.23,ENE,73,2.0,5.0,81,0.00,,,0.00,weatherlink.com 1.10,2013-03-08 13:16:00,
2013-03-08 08:33:00,54.8,46.0,30.24,East,88,6.0,7.0,72,0.00,,,0.00,weatherlink.com 1.10,2013-03-08 13:33:00,
2013-03-08 08:48:00,56.1,46.0,30.24,ENE,69,0.0,4.0,70,0.00,,,0.00,weatherlink.com 1.10,2013-03-08 13:48:00,
2013-03-08 09:03:00,59.0,46.0,30.24,ENE,78,4.0,7.0,62,0.00,,,0.00,weatherlink.com 1.10,2013-03-08 14:03:00,
2013-03-08 09:20:00,60.4,44.0,30.24,East,96,3.0,9.0,55,0.00,,,0.00,weatherlink.com 1.10,2013-03-08 14:20:00,
2013-03-08 09:37:00,62.9,43.0,30.24,ENE,70,8.0,8.0,49,0.00,,,0.00,weatherlink.com 1.10,2013-03-08 14:37:00,
2013-03-08 09:52:00,63.7,42.0,30.24,NE,56,1.0,9.0,46,0.00,,,0.00,weatherlink.com 1.10,2013-03-08 14:52:00,
2013-03-08 10:08:00,64.3,42.0,30.24,ENE,62,4.0,7.0,44,0.00,,,0.00,weatherlink.com 1.10,2013-03-08 15:08:00,
2013-03-08 10:24:00,65.4,42.0,30.24,ENE,65,3.0,6.0,43,0.00,,,0.00,weatherlink.com 1.10,2013-03-08 15:24:00,
2013-03-08 10:40:00,65.4,43.0,30.24,NNE,26,1.0,8.0,45,0.00,,,0.00,weatherlink.com 1.10,2013-03-08 15:40:00,
2013-03-08 10:56:00,65.9,42.0,30.24,ENE,68,3.0,6.0,42,0.00,,,0.00,weatherlink.com 1.10,2013-03-08 15:56:00,
2013-03-08 11:11:00,65.8,43.0,30.24,NE,34,3.0,5.0,44,0.00,,,0.00,weatherlink.com 1.10,2013-03-08 16:11:00,
2013-03-08 11:29:00,68.2,47.0,30.23,North,5,1.0,7.0,47,0.00,,,0.00,weatherlink.com 1.10,2013-03-08 16:29:00,
2013-03-08 11:43:00,67.0,45.0,30.23,WNW,286,2.0,6.0,46,0.00,,,0.00,weatherlink.com 1.10,2013-03-08 16:43:00,
2013-03-08 12:01:00,68.2,47.0,30.23,NW,321,4.0,6.0,47,0.00,,,0.00,weatherlink.com 1.10,2013-03-08 17:01:00,
2013-03-08 12:16:00,67.3,46.0,30.22,North,9,2.0,10.0,46,0.00,,,0.00,weatherlink.com 1.10,2013-03-08 17:16:00,
2013-03-08 12:34:00,67.4,45.0,30.21,NNE,25,2.0,8.0,45,0.00,,,0.00,weatherlink.com 1.10,2013-03-08 17:34:00,
2013-03-08 12:50:00,67.3,46.0,30.21,West,278,3.0,7.0,46,0.00,,,0.00,weatherlink.com 1.10,2013-03-08 17:50:00,
2013-03-08 13:07:00,68.4,45.0,30.20,NNE,26,3.0,8.0,43,0.00,,,0.00,weatherlink.com 1.10,2013-03-08 18:07:00,
2013-03-08 13:22:00,68.0,45.0,30.19,NNW,346,1.0,9.0,44,0.00,,,0.00,weatherlink.com 1.10,2013-03-08 18:22:00,
2013-03-08 13:36:00,68.2,45.0,30.19,NW,316,2.0,9.0,44,0.00,,,0.00,weatherlink.com 1.10,2013-03-08 18:36:00,
2013-03-08 13:51:00,66.6,46.0,30.18,NW,311,8.0,14.0,47,0.00,,,0.00,weatherlink.com 1.10,2013-03-08 18:51:00,
2013-03-08 14:08:00,68.5,47.0,30.18,North,355,3.0,8.0,46,0.00,,,0.00,weatherlink.com 1.10,2013-03-08 19:08:00,
2013-03-08 14:24:00,66.9,46.0,30.17,North,5,7.0,11.0,47,0.00,,,0.00,weatherlink.com 1.10,2013-03-08 19:24:00,
2013-03-08 14:39:00,67.7,45.0,30.16,NNE,32,4.0,10.0,45,0.00,,,0.00,weatherlink.com 1.10,2013-03-08 19:39:00,
2013-03-08 14:56:00,68.2,47.0,30.16,NNW,340,3.0,8.0,47,0.00,,,0.00,weatherlink.com 1.10,2013-03-08 19:56:00,
2013-03-08 15:13:00,67.3,47.0,30.16,NNW,340,1.0,7.0,49,0.00,,,0.00,weatherlink.com 1.10,2013-03-08 20:13:00,
2013-03-08 15:27:00,68.3,46.0,30.16,NNE,30,5.0,10.0,45,0.00,,,0.00,weatherlink.com 1.10,2013-03-08 20:27:00,
2013-03-08 15:44:00,68.1,46.0,30.15,NNE,26,6.0,11.0,46,0.00,,,0.00,weatherlink.com 1.10,2013-03-08 20:44:00,
2013-03-08 16:00:00,67.2,47.0,30.15,North,5,2.0,9.0,49,0.00,,,0.00,weatherlink.com 1.10,2013-03-08 21:00:00,
2013-03-08 16:15:00,66.6,48.0,30.15,WNW,292,2.0,8.0,52,0.00,,,0.00,weatherlink.com 1.10,2013-03-08 21:15:00,
2013-03-08 16:48:00,65.6,49.0,30.15,WSW,244,5.0,9.0,56,0.00,,,0.00,weatherlink.com 1.10,2013-03-08 21:48:00,
2013-03-08 17:03:00,64.5,50.0,30.16,North,355,4.0,8.0,59,0.00,,,0.00,weatherlink.com 1.10,2013-03-08 22:03:00,
2013-03-08 17:20:00,64.5,50.0,30.16,WNW,292,3.0,6.0,60,0.00,,,0.00,weatherlink.com 1.10,2013-03-08 22:20:00,
2013-03-08 17:35:00,63.8,49.0,30.16,NW,315,3.0,7.0,60,0.00,,,0.00,weatherlink.com 1.10,2013-03-08 22:35:00,
2013-03-08 17:51:00,62.9,49.0,30.16,NNW,343,3.0,6.0,61,0.00,,,0.00,weatherlink.com 1.10,2013-03-08 22:51:00,
2013-03-08 18:12:00,61.9,49.0,30.16,WNW,288,2.0,8.0,64,0.00,,,0.00,weatherlink.com 1.10,2013-03-08 23:12:00,
2013-03-08 18:24:00,61.3,49.0,30.17,North,360,0.0,7.0,64,0.00,,,0.00,weatherlink.com 1.10,2013-03-08 23:24:00,
2013-03-08 18:39:00,60.5,49.0,30.17,West,269,0.0,4.0,67,0.00,,,0.00,weatherlink.com 1.10,2013-03-08 23:39:00,
2013-03-08 18:56:00,59.8,50.0,30.18,NW,323,0.0,5.0,69,0.00,,,0.00,weatherlink.com 1.10,2013-03-08 23:56:00,
2013-03-08 19:28:00,59.2,50.0,30.18,NNE,14,0.0,8.0,71,0.00,,,0.00,weatherlink.com 1.10,2013-03-09 00:28:00,
2013-03-08 19:44:00,58.6,50.0,30.18,NNW,336,2.0,4.0,72,0.00,,,0.00,weatherlink.com 1.10,2013-03-09 00:44:00,
2013-03-08 20:01:00,58.1,50.0,30.18,NNE,26,0.0,4.0,74,0.00,,,0.00,weatherlink.com 1.10,2013-03-09 01:01:00,
2013-03-08 20:16:00,57.8,50.0,30.18,North,355,1.0,5.0,76,0.00,,,0.00,weatherlink.com 1.10,2013-03-09 01:16:00,
2013-03-08 20:30:00,57.7,51.0,30.18,NNW,340,0.0,3.0,78,0.00,,,0.00,weatherlink.com 1.10,2013-03-09 01:30:00,
2013-03-08 20:50:00,57.4,51.0,30.18,NNW,344,4.0,4.0,79,0.00,,,0.00,weatherlink.com 1.10,2013-03-09 01:50:00,
2013-03-08 21:03:00,56.9,50.0,30.19,NNW,346,0.0,2.0,79,0.00,,,0.00,weatherlink.com 1.10,2013-03-09 02:03:00,
2013-03-08 21:18:00,56.4,51.0,30.19,NNW,346,0.0,2.0,81,0.00,,,0.00,weatherlink.com 1.10,2013-03-09 02:18:00,
2013-03-08 21:34:00,56.0,51.0,30.20,NNW,346,0.0,3.0,82,0.00,,,0.00,weatherlink.com 1.10,2013-03-09 02:34:00,
2013-03-08 21:50:00,55.6,51.0,30.19,NNW,346,0.0,1.0,83,0.00,,,0.00,weatherlink.com 1.10,2013-03-09 02:50:00,
2013-03-08 22:07:00,55.5,51.0,30.19,NNW,346,2.0,2.0,84,0.00,,,0.00,weatherlink.com 1.10,2013-03-09 03:07:00,
2013-03-08 22:25:00,55.0,51.0,30.19,NNW,346,0.0,0.0,85,0.00,,,0.00,weatherlink.com 1.10,2013-03-09 03:25:00,
2013-03-08 22:38:00,54.3,50.0,30.20,NNW,346,0.0,0.0,86,0.00,,,0.00,weatherlink.com 1.10,2013-03-09 03:38:00,
2013-03-08 22:55:00,53.6,50.0,30.20,NNW,346,0.0,2.0,87,0.00,,,0.00,weatherlink.com 1.10,2013-03-09 03:55:00,
2013-03-08 23:10:00,53.3,50.0,30.21,ENE,65,1.0,6.0,89,0.00,,,0.00,weatherlink.com 1.10,2013-03-09 04:10:00,
2013-03-08 23:27:00,54.0,51.0,30.20,ENE,73,3.0,4.0,89,0.00,,,0.00,weatherlink.com 1.10,2013-03-09 04:27:00,
2013-03-08 23:42:00,54.3,51.0,30.19,ENE,65,3.0,7.0,88,0.00,,,0.00,weatherlink.com 1.10,2013-03-09 04:42:00,
2013-03-08 23:59:00,54.8,51.0,30.20,ENE,69,2.0,7.0,87,0.00,,,0.00,weatherlink.com 1.10,2013-03-09 04:59:00,